Location: Caltech
(34.1382°N, 118.1253°W)
Time: 05:14:25
(UTC-07:00)

Iridium 94 - Visible Passes

Search period start: 01 October 2014 00:00
Search period end: 11 October 2014 00:00
Orbit: 774 x 781 km, 86.4° (Epoch: 30 September)

Date Brightness Start Highest point End Pass type
(mag) Time Alt. Az. Time Alt. Az. Time Alt. Az.
01 Oct 6.9 21:01:55 30° N 21:01:55 30° N 21:04:31 10° N visible
02 Oct 6.5 20:27:50 33° NNE 20:27:50 33° NNE 20:30:51 10° NNE visible
02 Oct 8.3 22:08:15 13° WNW 22:08:15 13° WNW 22:09:41 10° NW visible
03 Oct 6.6 19:53:34 24° ENE 19:53:34 24° ENE 19:56:44 10° NNE visible
03 Oct 7.4 21:33:58 27° WNW 21:33:58 27° WNW 21:37:31 10° NNW visible
04 Oct 7.1 19:18:56 13° E 19:19:17 13° E 19:21:41 10° NE visible
04 Oct 6.1 20:59:18 55° W 20:59:25 55° W 21:04:31 10° N visible
05 Oct 5.3 20:23:20 31° S 20:25:53 76° E 20:31:05 10° N visible
06 Oct 5.9 19:47:43 10° SSE 19:52:29 38° E 19:57:16 10° NNE visible
06 Oct 7.9 21:29:38 10° SW 21:33:17 19° W 21:36:58 10° NW visible
07 Oct 6.7 19:15:29 10° SE 19:19:11 20° E 19:22:54 10° NE visible
07 Oct 6.9 20:54:49 10° SSW 20:59:35 36° W 21:04:22 10° NNW visible
08 Oct 5.7 20:20:49 10° S 20:25:59 72° W 20:31:11 10° N visible
09 Oct 5.5 19:47:26 10° SSE 19:52:30 58° E 19:57:36 10° N visible
09 Oct 8.4 21:31:21 10° WSW 21:33:35 13° WNW 21:35:49 10° NW visible
10 Oct 8.8 06:23:35 10° NE 06:25:51 13° ENE 06:28:06 10° ESE visible
10 Oct 6.3 19:14:42 10° SE 19:19:09 30° E 19:23:36 10° NNE visible
10 Oct 7.6 20:55:35 10° SW 20:59:47 25° W 21:04:01 10° NNW visible
